Temp
82 83 82 82 81 79 78 81 76 79 80 82 80 79 83 84 82 82 82 82 79 74 78 78 76 75 78 81 84 87 84 84 81 81 81 82 80 80 80 80 79 79 78 79
77 83 83 79 82 81 81 82 82 83 80 83 82 81 81 82 82 81 81 82 81 78 79 78 78 78 77 80 83 86 85 82 82 80 80 79 79 77 79 79 78 78 78 79
71 80 79 73 80 81 83 85 84 78 80 83 80 79 80 80 81 81 81 81 80 80 80 79 80 79 78 78 79 83 84 84 81 77 78 79 79 77 77 77 76 75 77 78
74 74 62 77 86 88 84 84 85 82 80 81 80 80 82 82 81 81 81 82 82 83 82 81 82 80 75 74 70 78 82 84 80 77 78 76 76 76 74 76 74 73 74 76
68 69 73 74 78 79 80 79 85 83 81 80 82 81 77 80 80 79 77 77 81 84 83 82 82 80 77 73 69 74 81 81 79 78 76 73 72 75 74 74 74 74 75 75
71 66 62 77 80 84 84 73 83 82 82 81 80 77 78 78 79 71 71 74 77 82 83 81 78 78 76 74 73 78 80 76 73 75 74 71 73 75 73 72 73 77 73 72
71 70 71 80 81 85 69 71 81 82 81 81 81 79 78 80 74 70 68 68 74 76 79 73 75 77 75 74 73 76 74 75 73 73 72 73 72 72 68 69 72 72 70 68
73 68 63 77 79 75 73 78 81 82 81 78 79 77 78 78 76 71 66 67 68 67 66 68 70 75 73 68 66 68 69 71 72 71 74 75 69 68 66 66 68 69 70 70
70 70 71 76 74 75 76 75 78 81 82 81 79 78 77 76 75 71 70 70 72 71 69 68 67 69 69 67 68 67 68 66 67 68 69 70 69 63 61 62 67 64 66 70
71 73 74 73 76 76 77 77 80 82 82 83 80 79 77 74 75 71 73 74 77 76 73 70 69 68 67 66 66 66 66 65 65 63 62 63 63 62 61 67 66 61 63 68
71 73 73 74 75 76 77 79 80 82 82 81 80 78 76 70 73 75 75 75 76 74 72 69 69 66 65 65 65 64 64 64 64 63 60 56 53 56 60 59 65 63 65 66
72 71 73 73 74 76 78 78 80 79 78 79 80 79 78 77 74 75 75 76 75 75 74 71 71 68 67 67 66 65 65 68 70 70 62 58 57 53 46 47 45 47 50 60
73 75 73 75 75 76 78 79 80 80 79 78 79 80 79 77 76 68 74 76 75 76 76 75 74 72 70 69 68 66 67 67 70 67 65 60 59 57 51 49 44 42 44 45
76 76 73 75 74 77 79 78 76 80 80 79 78 79 78 77 74 76 76 77 77 77 77 76 75 73 72 72 68 67 67 56 69 68 70 67 66 65 66 66 67 65 47 52
75 77 77 79 79 77 78 79 76 76 77 77 78 78 78 76 77 77 78 77 76 76 75 75 74 73 74 74 72 67 68 69 68 68 70 69 72 74 76 74 74 71 65 54
74 75 76 76 76 77 77 75 68 71 69 72 79 78 77 79 79 79 78 77 74 74 74 74 74 74 74 73 71 73 72 61 67 75 73 75 76 76 76 74 73 72 72 72
70 71 73 73 73 74 74 76 77 77 78 77 76 77 78 78 78 78 77 77 75 75 75 74 75 76 73 72 69 73 76 73 66 77 76 76 77 76 76 75 75 75 75 72
72 73 74 74 74 74 73 74 75 74 73 74 75 76 76 76 74 76 77 79 78 76 75 77 75 74 73 71 66 67 76 75 75 77 77 76 76 76 76 77 77 76 76 68
71 71 72 72 73 73 74 74 74 74 74 73 73 72 73 74 75 75 76 76 75 74 77 78 66 68 73 69 66 65 74 74 74 76 76 69 74 78 77 77 77 78 78 76
70 71 72 71 73 72 72 74 74 73 73 73 71 70 70 72 73 73 73 72 75 77 78 77 74 74 73 71 63 66 69 74 69 75 76 76 77 77 77 67 76 77 78 77
68 69 69 70 70 71 72 72 71 70 71 71 69 68 68 69 71 71 70 73 76 78 75 68 75 76 76 72 67 68 68 71 76 76 75 73 72 71 75 75 77 77 76 76
67 68 68 68 67 68 70 71 70 70 69 68 68 68 67 67 68 68 70 70 76 59 75 79 78 70 73 63 75 70 69 73 69 68 76 74 68 73 73 74 77 75 73 67
66 66 66 67 66 66 69 69 68 67 65 64 62 61 59 59 59 56 59 70 75 65 73 79 64 57 56 70 73 71 71 75 71 71 75 76 73 71 70 69 64 68 70 71
59 60 62 64 65 65 62 61 62 60 59 59 58 59 58 57 60 66 65 59 54 56 68 71 64 52 53 72 69 76 73 69 68 63 66 55 64 67 66 64 65 71 65 58
58 59 60 60 59 58 61 60 60 61 60 58 59 57 57 57 54 57 57 61 53 55 62 50 51 52 66 60 55 56 56 57 57 57 57 56 56 57 58 59 63 66 65 64
57 56 55 57 57 57 58 59 59 59 60 57 58 58 57 55 53 53 55 53 57 54 59 60 62 61 55 54 54 53 53 54 58 59 57 56 56 57 58 58 62 64 69 71
57 50 59 57 57 58 58 57 57 58 56 56 56 55 53 52 52 52 50 52 52 52 53 54 55 53 54 55 53 54 53 53 51 56 56 55 56 56 60 64 70 71 71 70
MSLP
1002.60 1002.09 1002.45 1002.05 1002.44 1002.87 1002.71 1002.34 1002.25 1001.94 1002.79 1004.41 1005.74 1006.52 1006.90 1007.75 1008.61 1008.98 1009.49 1009.99 1010.82 1011.48 1011.65 1012.01 1012.35 1012.80 1012.86 1012.76 1012.70 1013.19 1014.25 1014.94 1015.39 1016.01 1016.39 1016.91 1017.32 1017.65 1017.89 1017.90 1017.86 1017.88 1018.02 1018.18
1002.69 1002.46 1002.64 1002.43 1002.41 1002.71 1002.79 1002.62 1002.61 1002.93 1003.70 1005.54 1006.51 1007.17 1007.58 1008.13 1008.78 1009.15 1009.47 1010.03 1010.55 1011.27 1011.64 1011.89 1011.97 1012.61 1013.51 1013.63 1013.54 1013.30 1014.07 1014.95 1015.41 1015.84 1016.46 1016.76 1017.19 1017.55 1017.89 1017.91 1018.00 1018.04 1017.98 1018.03
1002.43 1002.58 1002.67 1002.37 1002.18 1002.44 1002.52 1002.81 1002.73 1003.45 1004.82 1006.05 1006.81 1007.47 1008.05 1008.65 1009.18 1009.39 1009.69 1010.03 1010.61 1011.03 1011.29 1011.84 1012.47 1013.00 1013.50 1014.09 1014.20 1014.07 1014.18 1014.72 1015.43 1015.86 1016.35 1016.66 1016.98 1017.37 1017.81 1017.85 1018.18 1018.33 1018.29 1018.32
1002.30 1002.97 1002.57 1002.23 1002.46 1002.40 1002.65 1003.17 1003.84 1004.62 1005.46 1006.81 1007.49 1008.20 1008.77 1009.26 1009.56 1009.91 1010.27 1010.41 1010.49 1010.73 1011.23 1011.99 1012.57 1013.14 1014.04 1014.35 1014.37 1014.61 1014.69 1014.63 1015.37 1015.91 1016.17 1016.59 1016.99 1017.23 1017.77 1017.94 1018.41 1018.63 1018.76 1018.63
1002.88 1002.76 1002.87 1003.34 1003.58 1003.47 1003.25 1003.79 1004.55 1005.17 1006.38 1007.42 1008.04 1008.70 1009.50 1010.09 1010.37 1010.77 1011.40 1011.51 1011.20 1010.91 1011.27 1012.04 1012.70 1013.41 1014.06 1014.50 1014.44 1015.00 1014.83 1015.09 1015.47 1015.75 1016.14 1016.55 1016.94 1017.14 1017.65 1018.09 1018.49 1018.71 1018.84 1019.16
1003.15 1002.54 1002.86 1002.53 1004.19 1004.54 1004.40 1004.54 1005.52 1006.10 1006.80 1007.64 1008.31 1008.29 1009.30 1010.57 1011.00 1011.98 1012.41 1012.37 1012.07 1011.57 1011.89 1012.55 1013.32 1013.82 1014.15 1014.49 1014.90 1014.41 1014.42 1014.97 1015.43 1015.88 1016.08 1016.36 1016.62 1016.83 1017.60 1018.21 1018.59 1018.62 1019.27 1019.73
1003.26 1003.08 1004.03 1004.59 1005.20 1005.21 1005.34 1006.43 1006.46 1006.91 1007.52 1007.89 1008.06 1009.23 1010.22 1010.88 1011.99 1012.75 1013.03 1013.13 1012.84 1012.49 1012.51 1013.51 1013.84 1014.00 1014.43 1014.84 1015.11 1015.11 1015.00 1015.23 1015.66 1015.70 1015.96 1016.15 1016.60 1017.05 1017.80 1018.40 1018.66 1019.13 1019.60 1020.17
1004.26 1004.33 1005.36 1006.51 1006.23 1006.25 1007.62 1007.40 1007.22 1007.55 1008.05 1008.79 1009.39 1010.17 1010.71 1011.45 1012.13 1012.86 1013.46 1013.69 1013.71 1013.71 1014.09 1014.37 1014.51 1014.25 1014.51 1015.11 1015.89 1016.07 1015.18 1015.39 1015.61 1015.97 1015.74 1015.99 1016.59 1017.08 1017.77 1018.40 1018.78 1019.21 1019.55 1019.95
1006.22 1006.23 1007.50 1007.73 1007.89 1008.62 1008.67 1008.39 1008.27 1008.30 1008.68 1008.89 1009.55 1010.28 1011.03 1011.77 1012.31 1013.02 1013.50 1013.84 1013.83 1013.78 1014.11 1014.61 1014.91 1015.11 1014.95 1015.47 1015.62 1015.75 1016.04 1016.33 1016.19 1016.18 1016.30 1016.45 1016.57 1017.25 1018.07 1018.62 1018.84 1019.22 1019.56 1019.72
1006.79 1007.37 1007.81 1008.42 1008.77 1009.15 1009.32 1009.01 1008.99 1009.01 1009.11 1009.37 1009.82 1010.61 1011.28 1012.08 1012.57 1013.26 1013.41 1013.56 1013.58 1013.71 1013.99 1014.39 1015.06 1015.20 1015.67 1015.88 1016.17 1016.32 1016.44 1016.39 1016.58 1016.50 1016.75 1017.09 1017.18 1017.62 1018.03 1018.44 1018.98 1019.50 1019.49 1019.67
1007.39 1008.04 1008.63 1009.03 1009.29 1009.54 1009.46 1009.42 1009.36 1009.61 1009.49 1009.89 1010.46 1010.89 1011.64 1012.56 1012.95 1013.11 1013.35 1013.62 1013.67 1013.90 1014.26 1014.63 1015.13 1015.44 1015.95 1016.30 1016.40 1016.54 1016.63 1016.59 1016.71 1017.03 1017.35 1017.84 1018.28 1018.39 1018.34 1018.69 1018.49 1019.03 1019.42 1019.67
1007.08 1008.83 1009.00 1009.26 1009.88 1010.01 1009.71 1009.59 1009.60 1009.77 1010.15 1010.64 1010.74 1011.19 1011.71 1012.44 1013.14 1013.26 1013.43 1013.69 1013.93 1014.17 1014.42 1014.74 1014.94 1015.49 1016.02 1016.27 1016.46 1016.58 1016.58 1016.57 1016.47 1016.77 1017.54 1018.05 1018.35 1018.79 1019.20 1019.35 1019.39 1019.41 1019.92 1019.89
1008.95 1009.51 1009.73 1010.00 1010.22 1010.32 1010.06 1010.14 1010.05 1010.26 1010.74 1011.01 1011.50 1011.78 1012.17 1012.71 1013.17 1013.57 1013.55 1013.67 1013.89 1014.04 1014.34 1014.61 1014.97 1015.49 1015.92 1016.33 1016.41 1016.51 1016.48 1016.57 1016.40 1016.61 1017.18 1017.78 1018.15 1018.55 1019.14 1019.95 1019.84 1019.90 1020.29 1020.57
1009.97 1009.96 1009.87 1009.92 1009.85 1010.23 1010.42 1010.71 1011.04 1011.29 1011.49 1011.72 1012.09 1012.41 1012.66 1012.81 1013.39 1013.33 1013.39 1013.58 1013.87 1014.05 1014.23 1014.50 1014.75 1015.07 1015.68 1015.94 1016.26 1016.41 1016.35 1016.67 1016.39 1016.39 1016.49 1017.04 1017.30 1017.63 1017.96 1018.29 1018.63 1019.62 1020.66 1020.85
1010.56 1010.53 1010.40 1010.24 1010.31 1010.75 1011.14 1011.32 1011.52 1011.86 1012.05 1012.18 1012.39 1012.49 1012.67 1012.89 1012.98 1013.07 1013.36 1013.69 1013.90 1013.93 1014.06 1014.24 1014.40 1014.65 1015.14 1015.40 1015.51 1015.90 1015.91 1015.99 1015.93 1016.06 1016.02 1015.94 1016.11 1016.25 1016.32 1016.69 1017.06 1018.28 1019.79 1020.82
1011.27 1011.11 1010.95 1010.81 1010.91 1011.13 1011.34 1011.57 1011.87 1012.47 1012.68 1012.81 1012.50 1012.39 1012.55 1012.85 1012.95 1013.02 1013.33 1013.55 1013.63 1013.48 1013.75 1013.93 1013.99 1014.17 1014.78 1015.09 1015.08 1014.94 1015.12 1015.46 1015.15 1015.04 1015.56 1015.49 1015.30 1015.26 1015.67 1016.08 1016.72 1017.49 1017.93 1018.50
1011.53 1011.28 1011.27 1011.21 1011.53 1011.80 1011.95 1012.02 1012.10 1012.19 1012.14 1012.47 1012.66 1012.59 1012.62 1012.69 1012.70 1012.63 1012.93 1013.33 1013.53 1013.49 1013.43 1013.57 1013.57 1013.79 1014.47 1014.95 1015.11 1014.55 1014.34 1015.19 1015.17 1014.66 1014.64 1014.79 1014.92 1015.14 1015.39 1015.82 1016.13 1016.59 1016.93 1017.64
1012.41 1012.26 1012.24 1012.11 1012.03 1012.09 1012.31 1012.38 1012.44 1012.65 1012.88 1013.03 1012.97 1012.91 1012.83 1012.75 1012.74 1012.71 1012.67 1012.60 1012.67 1012.90 1013.03 1012.96 1013.37 1013.72 1014.23 1014.69 1015.11 1014.76 1013.99 1014.37 1014.61 1014.27 1014.43 1014.69 1014.90 1014.93 1015.26 1015.39 1015.63 1016.05 1016.53 1017.95
1013.33 1013.28 1013.17 1013.11 1013.07 1012.91 1012.81 1012.83 1012.95 1013.07 1013.17 1013.31 1013.39 1013.35 1013.37 1013.22 1013.02 1012.89 1012.74 1012.47 1012.19 1012.03 1011.81 1012.34 1012.95 1013.72 1013.72 1014.30 1014.73 1014.77 1013.89 1014.01 1014.28 1014.13 1014.37 1014.71 1014.94 1014.73 1014.83 1015.07 1015.19 1015.45 1015.79 1016.63
1013.99 1013.92 1013.77 1013.68 1013.57 1013.55 1013.49 1013.47 1013.50 1013.47 1013.53 1013.67 1013.72 1013.73 1013.59 1013.38 1013.19 1013.03 1012.84 1012.41 1012.02 1011.74 1011.70 1011.91 1012.51 1012.94 1013.21 1013.59 1014.45 1014.40 1013.94 1013.61 1013.94 1013.89 1014.06 1014.23 1014.30 1014.39 1014.53 1014.87 1014.77 1014.97 1015.18 1015.65
1014.53 1014.41 1014.25 1014.13 1014.05 1014.06 1013.90 1013.83 1013.85 1013.81 1013.89 1014.00 1013.94 1013.86 1013.73 1013.57 1013.41 1013.12 1012.65 1011.88 1011.28 1011.11 1011.58 1011.79 1012.03 1011.99 1012.38 1013.02 1013.81 1013.97 1013.65 1013.42 1013.21 1013.22 1013.47 1014.10 1014.36 1014.76 1014.55 1014.55 1014.81 1015.22 1015.51 1015.80
1015.00 1014.77 1014.59 1014.51 1014.44 1014.27 1014.15 1014.14 1014.13 1014.07 1014.01 1014.01 1013.98 1013.86 1013.64 1013.37 1013.13 1013.01 1012.70 1012.09 1011.37 1011.53 1011.29 1010.93 1011.21 1011.38 1011.71 1012.67 1012.63 1013.16 1013.18 1013.11 1013.57 1013.62 1013.39 1013.97 1014.50 1014.46 1014.51 1014.75 1014.78 1015.33 1015.99 1016.65
1015.35 1015.12 1014.96 1014.72 1014.60 1014.48 1014.34 1014.17 1014.28 1014.38 1014.41 1014.53 1014.69 1014.50 1014.49 1014.28 1014.05 1013.64 1012.97 1011.96 1011.32 1011.40 1011.34 1010.45 1010.48 1011.31 1011.81 1012.15 1011.81 1012.32 1012.47 1012.51 1013.10 1013.31 1013.26 1013.49 1014.19 1014.83 1015.13 1015.46 1016.10 1016.03 1015.98 1016.48
1016.07 1015.86 1015.52 1015.25 1015.11 1014.84 1014.80 1014.96 1015.14 1015.33 1015.41 1015.35 1015.23 1015.01 1014.79 1014.37 1013.82 1013.10 1012.79 1012.69 1012.61 1012.48 1011.71 1010.93 1011.22 1011.81 1012.09 1011.90 1012.03 1011.47 1011.81 1012.79 1013.39 1014.21 1014.40 1014.82 1014.85 1015.65 1015.97 1016.35 1015.92 1016.12 1016.64 1017.07
1016.25 1015.99 1015.81 1015.57 1015.43 1015.45 1015.28 1015.47 1015.43 1015.26 1015.27 1015.27 1015.05 1015.07 1014.89 1014.65 1014.39 1013.75 1013.53 1012.89 1012.65 1012.46 1011.83 1012.07 1012.07 1012.33 1012.46 1013.29 1013.59 1013.90 1014.16 1014.27 1014.25 1014.54 1014.70 1015.57 1016.65 1016.97 1017.07 1016.99 1016.72 1016.41 1016.57 1016.63
1016.38 1016.34 1016.34 1016.26 1016.19 1016.09 1015.98 1015.85 1015.61 1015.55 1015.44 1015.41 1015.27 1015.06 1014.85 1014.66 1014.29 1013.84 1013.36 1013.12 1012.54 1012.33 1012.16 1012.54 1012.67 1013.08 1013.40 1013.75 1014.05 1014.47 1014.83 1014.87 1014.51 1014.86 1015.47 1016.42 1016.89 1016.91 1016.99 1017.02 1016.57 1016.28 1015.97 1016.02
1016.63 1016.73 1016.36 1016.48 1016.53 1016.39 1016.27 1016.23 1015.99 1015.83 1015.93 1015.74 1015.43 1015.46 1015.21 1014.82 1014.35 1013.94 1013.68 1013.37 1013.20 1013.08 1013.22 1013.37 1013.69 1014.00 1014.28 1014.44 1014.67 1014.74 1015.07 1015.30 1015.33 1015.54 1016.21 1016.75 1016.94 1016.96 1016.50 1015.94 1015.62 1015.72 1015.88 1016.13
Wind_Speed
15 2 5 6 12 13 13 11 8 6 6 9 4 4 2 7 8 9 8 7 9 10 12 9 9 8 9 10 13 12 11 10 9 8 8 8 7 6 6 6 6 7 7 6
17 13 13 9 8 11 9 6 3 2 5 4 3 4 7 7 7 7 5 6 7 9 12 13 12 8 6 7 10 13 13 10 9 10 9 9 8 8 7 6 6 6 6 7
16 9 12 14 13 14 12 10 4 7 9 2 4 6 6 5 3 3 4 4 7 9 11 10 7 5 6 6 5 10 12 9 8 8 9 9 9 8 8 7 6 5 6 6
10 8 15 5 4 7 10 8 5 5 8 5 6 7 7 4 3 2 2 1 4 8 8 11 7 7 8 8 4 6 9 8 7 7 9 8 9 9 8 7 8 6 6 7
7 12 4 8 8 9 13 11 6 7 8 9 9 10 6 4 4 6 5 4 2 3 8 9 7 5 7 10 5 7 9 6 5 8 8 8 10 10 7 7 7 7 7 7
6 9 10 13 8 4 3 9 5 4 8 10 9 9 8 2 4 5 3 2 2 5 9 10 6 7 10 9 10 13 12 8 8 8 9 9 10 10 8 6 6 6 6 5
9 7 7 8 4 4 10 7 6 4 5 5 3 6 7 4 6 4 5 5 5 5 5 6 5 8 9 9 10 6 8 8 7 7 6 6 6 7 6 6 8 6 7 5
2 5 6 2 4 5 6 5 4 7 6 6 8 8 6 7 6 7 6 6 7 7 7 5 1 5 6 6 5 3 4 6 7 4 5 7 9 8 8 7 9 8 7 6
7 7 4 3 5 4 4 4 3 6 7 9 8 7 7 6 8 8 7 6 6 8 7 6 4 2 5 5 4 4 4 3 3 4 2 3 8 9 8 6 7 6 6 7
4 5 5 3 4 3 4 4 2 6 7 5 8 8 8 6 5 5 5 6 6 6 6 7 5 4 3 3 4 4 4 4 2 3 4 3 4 5 7 9 9 6 5 6
2 2 1 3 3 3 3 3 6 7 6 7 7 7 8 5 4 4 5 4 5 6 5 5 5 5 3 2 3 3 3 3 4 4 4 5 6 3 4 3 4 6 6 6
5 4 3 6 3 1 3 5 8 9 8 5 6 7 7 7 5 4 4 3 2 3 3 5 5 4 3 3 4 5 5 5 5 6 5 5 6 7 15 10 8 10 5 2
5 2 3 4 2 3 7 9 10 10 9 9 8 7 6 6 5 4 3 2 2 1 1 2 2 1 5 6 5 6 6 6 5 4 6 6 6 7 7 6 11 10 8 8
3 3 4 3 4 7 9 11 10 10 9 8 7 6 6 6 6 5 4 3 3 3 3 3 3 4 5 6 7 7 7 2 6 5 6 6 8 8 9 9 9 8 4 5
3 3 5 3 4 7 7 8 8 8 7 6 6 6 5 4 3 3 3 4 5 5 5 6 6 6 5 6 7 7 7 7 7 7 8 7 8 8 9 8 7 8 8 7
7 2 3 0 4 4 7 7 8 3 6 5 2 5 4 1 1 1 4 5 6 6 8 8 8 7 7 6 6 6 6 3 5 7 7 8 7 7 6 7 7 8 8 9
6 5 2 3 4 4 4 5 5 5 5 6 6 6 5 5 5 5 5 6 6 8 8 8 9 7 7 8 8 7 6 8 7 7 7 7 7 8 8 8 8 8 7 8
3 3 3 4 4 4 4 5 6 7 7 6 6 6 7 7 7 7 8 7 7 9 10 9 8 6 8 8 8 7 7 9 8 7 7 7 8 8 8 8 8 8 8 7
8 6 6 6 7 6 7 7 7 7 7 7 8 8 8 8 7 8 8 9 9 9 9 8 9 9 9 10 9 6 9 9 10 8 7 8 7 9 8 7 7 7 7 10
6 6 7 6 6 7 8 8 9 9 9 9 10 10 11 11 10 9 9 11 11 10 10 7 11 12 11 11 12 6 10 8 5 9 9 10 10 8 7 5 5 7 7 5
7 7 8 8 8 8 8 8 9 10 11 11 11 12 13 13 12 12 12 11 12 8 6 5 10 10 10 9 11 9 8 9 11 9 8 8 4 7 9 7 8 5 4 5
9 8 8 8 8 8 7 7 9 10 11 11 12 12 13 13 12 12 13 13 11 4 8 8 9 12 8 13 10 11 9 10 9 7 11 9 7 8 7 6 4 4 4 3
9 8 8 8 8 9 9 9 10 10 10 10 11 10 8 8 8 8 10 12 9 5 8 10 0 11 9 10 9 12 13 10 9 7 8 9 7 6 3 2 5 6 5 5
8 7 8 7 7 7 7 6 6 6 5 6 7 7 7 7 8 9 7 11 11 11 11 9 3 5 8 8 6 5 4 4 5 5 7 7 7 3 3 4 3 3 3 4
7 6 5 5 4 3 5 4 4 4 6 7 6 7 8 6 6 8 9 10 10 9 9 7 9 7 5 6 5 4 3 4 6 7 7 7 1 1 2 5 6 6 5 7
4 3 2 3 3 3 3 3 4 4 4 5 6 8 7 6 5 6 6 7 7 5 3 7 7 7 7 6 6 6 5 3 6 7 7 3 1 1 1 4 6 7 7 4
1 2 2 2 2 3 4 3 3 4 5 6 6 7 6 6 5 5 5 5 5 7 6 7 6 7 5 6 6 6 5 4 5 6 4 3 4 6 9 7 4 4 4 5
Wind_Direction
245 250 251 246 190 195 223 236 234 215 194 81 40 12 76 122 133 133 142 154 164 187 186 194 184 161 178 170 163 172 181 200 195 185 173 159 164 156 155 144 121 116 113 102
234 225 239 233 207 196 211 219 216 251 132 74 70 112 141 136 139 129 139 151 175 192 189 204 198 170 165 183 178 172 177 200 196 174 179 172 172 163 178 154 142 139 131 121
231 203 219 226 212 210 199 191 221 214 74 111 107 112 126 138 140 104 115 149 182 196 192 200 192 150 159 190 214 190 192 183 198 168 181 186 177 172 187 166 139 141 137 129
235 189 218 99 144 214 203 186 180 121 96 104 126 120 109 70 29 82 78 145 202 181 192 182 186 167 121 144 131 225 205 185 174 167 197 180 180 180 181 168 162 162 155 145
201 214 102 145 171 184 188 171 144 118 123 134 137 130 88 24 23 28 1 334 29 171 172 168 174 173 163 135 85 229 201 192 164 183 195 168 183 187 174 178 168 163 157 152
196 210 213 133 128 162 177 149 116 128 140 161 167 222 107 56 28 36 357 324 196 179 148 152 142 150 171 168 190 203 185 169 158 176 184 189 194 181 160 181 177 153 139 146
192 210 93 106 126 160 210 94 114 136 141 158 192 41 96 115 79 86 50 53 80 61 102 79 134 164 167 187 203 196 147 157 161 163 167 179 182 159 150 172 153 153 135 148
248 217 139 68 184 251 32 93 77 139 133 112 115 114 110 101 92 82 79 82 91 98 89 80 77 198 178 164 156 202 129 157 151 163 160 153 154 147 144 158 159 158 154 159
341 47 55 27 33 41 10 24 87 131 127 130 129 118 119 101 82 69 87 89 96 102 102 86 72 92 181 156 155 128 151 153 139 137 115 226 153 138 137 149 161 150 169 163
262 92 65 56 71 82 48 34 94 122 129 125 121 133 125 108 99 94 85 82 73 73 69 75 62 64 93 131 152 182 189 168 140 108 97 91 115 143 150 168 162 166 179 159
226 147 136 125 82 48 51 91 129 139 125 116 132 127 118 128 138 125 103 81 49 51 50 85 94 92 100 157 194 197 170 158 142 136 113 95 65 50 115 83 191 158 166 173
31 43 340 88 95 55 114 103 120 123 117 103 120 122 124 126 141 127 128 106 109 91 110 95 86 105 153 175 196 190 189 191 180 151 135 129 129 96 48 47 70 91 87 130
20 82 80 113 128 154 112 98 101 106 109 110 106 113 112 120 134 110 151 182 207 213 35 98 110 183 188 197 201 205 211 190 160 175 146 149 141 130 115 60 67 64 86 76
91 148 140 168 155 149 113 106 101 102 105 113 119 126 135 130 142 163 179 197 218 233 234 237 247 232 211 201 194 203 202 128 188 177 171 169 169 165 160 166 157 144 99 134
147 30 6 65 99 101 102 104 93 83 87 97 123 125 128 145 153 166 172 197 215 238 244 251 248 247 213 228 206 191 202 180 194 186 194 190 184 184 180 175 159 142 137 162
314 294 332 262 92 117 139 154 111 128 165 157 244 76 74 12 298 246 212 215 226 222 222 239 245 238 208 225 227 202 203 46 225 184 156 185 178 172 158 156 153 160 170 152
299 236 228 126 94 82 78 65 48 53 56 45 27 18 355 336 309 265 230 247 250 254 260 247 248 219 204 207 222 230 200 167 242 185 180 167 168 159 157 161 157 162 149 136
72 60 55 40 55 53 43 35 34 34 24 4 356 345 344 338 332 320 314 302 256 255 258 251 249 221 210 200 217 266 206 175 197 194 167 171 178 164 166 168 162 162 147 134
54 53 43 41 24 8 352 356 354 348 342 339 332 330 325 313 315 312 306 295 285 276 262 237 169 206 208 200 206 243 235 181 200 197 184 170 200 186 180 186 184 184 178 158
25 15 3 354 349 341 327 318 316 311 313 312 311 305 301 299 302 300 296 287 287 294 308 274 187 207 210 188 200 224 238 195 213 203 198 192 195 203 197 209 233 206 194 213
348 343 335 335 329 319 309 315 312 309 311 303 297 294 293 292 288 289 280 270 273 280 284 210 212 215 200 186 192 221 229 214 213 215 196 216 174 240 217 213 198 203 200 200
328 321 321 321 314 309 306 309 307 305 307 306 303 299 298 293 294 288 279 277 284 256 277 241 217 216 208 178 203 199 231 200 205 214 212 185 213 232 233 213 222 143 133 145
315 317 316 310 321 321 311 316 329 325 321 324 313 307 309 303 294 284 284 285 287 10 279 259 15 156 171 196 213 195 225 192 206 210 219 182 180 223 292 160 181 182 170 149
304 297 296 309 291 306 314 330 343 346 323 315 305 302 299 297 291 278 260 270 270 278 276 299 176 158 203 211 241 245 120 143 146 50 79 63 42 320 252 195 161 200 115 141
292 288 281 302 314 355 349 3 310 290 336 322 336 348 321 308 288 303 300 295 295 275 269 104 114 128 157 118 77 75 89 132 129 121 79 73 116 222 216 215 201 176 183 207
360 39 50 26 6 353 347 328 339 3 336 4 356 358 348 332 312 298 297 301 285 256 147 147 135 113 101 98 94 88 80 30 74 91 104 129 224 212 162 205 193 206 210 188
110 344 54 55 33 32 26 27 27 28 14 360 9 10 347 345 348 360 8 28 45 65 79 83 83 74 81 81 81 83 71 70 43 68 86 139 192 213 216 214 203 203 210 211